SCP
0 1 1 2 2 2 2 2 2 2 2 2 1 1 1 1 1 1 1 1 1 1 1 1 1 1 1 1 1 1 1 1 1 1 1 0 0 0 0 0 0 0 1
1 1 1 2 3 3 3 2 2 2 2 2 2 1 1 1 1 1 1 1 1 1 1 1 1 1 1 1 1 1 1 1 0 1 0 0 0 0 0 0 0 0 0
1 1 2 2 3 3 3 2 2 2 2 2 2 2 1 1 1 1 1 1 1 1 1 1 1 1 1 1 1 1 0 0 0 0 0 0 0 0 0 0 0 0 0
2 2 2 3 3 3 3 2 2 2 2 2 2 2 1 1 1 1 1 1 1 1 1 1 1 1 1 1 1 1 0 0 0 0 0 0 0 0 0 0 0 0 0
2 2 3 3 4 3 3 3 2 2 1 1 1 1 1 1 1 1 1 1 1 1 1 1 1 1 1 1 1 0 0 0 0 0 0 0 0 0 0 0 0 0 0
3 3 3 4 4 4 3 3 2 2 2 1 1 1 1 1 1 1 1 1 1 1 1 1 1 1 1 1 0 0 0 0 0 0 0 0 0 0 0 0 0 0 0
3 3 3 4 4 4 4 3 3 2 2 2 2 1 1 1 1 1 1 1 1 1 1 1 1 1 1 0 0 0 0 0 0 0 0 0 0 0 0 1 1 1 1
4 4 4 4 4 4 4 3 3 2 2 2 2 2 1 1 1 1 1 1 1 1 1 0 1 1 0 0 0 0 0 0 0 0 0 0 0 0 1 1 1 1 1
4 4 4 4 4 4 4 4 3 3 2 2 2 2 2 1 1 1 1 1 1 1 1 1 1 1 0 0 0 0 0 0 0 0 0 0 0 1 1 1 1 1 1
4 4 4 4 4 4 4 3 3 2 2 2 2 2 2 1 1 1 1 1 1 1 1 1 1 0 0 0 0 0 0 0 0 0 0 0 0 1 1 1 1 1 1
4 4 4 4 4 4 3 3 3 2 2 2 2 2 1 1 1 1 1 1 1 1 1 1 0 0 0 0 0 0 0 0 0 0 0 0 0 1 1 1 0 1 1
4 4 4 4 4 4 3 3 3 3 2 2 2 2 1 1 1 1 1 1 1 1 0 0 0 0 0 0 0 0 0 0 0 0 0 0 0 0 1 1 1 1 1
4 4 4 4 4 3 3 3 3 3 2 2 2 2 2 1 1 1 1 1 0 0 0 0 0 0 0 0 0 0 0 0 0 0 0 0 0 0 1 1 1 1 1
4 4 4 4 4 4 3 3 3 3 2 2 2 2 2 1 1 1 1 1 0 0 0 0 0 0 0 0 0 0 0 0 0 0 0 0 0 0 0 1 1 1 1
3 3 4 4 4 4 3 3 3 3 2 2 2 2 2 1 1 1 1 1 0 0 0 0 0 0 0 0 0 0 0 0 0 0 0 0 0 0 0 1 1 1 1
2 2 2 3 4 4 4 3 3 3 2 2 2 1 1 1 1 1 1 0 0 0 0 0 0 0 0 0 0 0 0 0 0 0 0 0 0 0 0 0 1 1 1
1 1 1 2 3 4 4 4 3 3 2 2 1 1 1 1 1 1 0 0 0 0 0 0 0 0 0 0 0 0 0 0 0 0 0 0 0 0 0 0 0 1 1
1 1 1 1 2 3 3 4 4 3 3 2 2 1 1 1 1 1 0 0 0 0 0 0 0 0 0 0 0 0 0 0 0 0 0 0 0 0 0 0 0 0 0
2 2 1 1 1 2 2 3 3 3 3 2 2 1 1 1 0 0 0 0 0 0 0 0 0 0 0 0 0 0 0 0 0 0 0 0 0 0 0 0 0 0 0
2 2 1 1 1 1 1 2 2 2 2 2 1 1 1 0 0 0 0 0 0 0 0 0 0 0 0 0 0 0 0 0 0 0 0 0 0 0 0 0 0 0 0
2 2 2 2 1 1 1 1 1 1 1 1 1 1 0 0 0 0 0 0 0 0 0 0 0 0 0 0 0 0 0 0 0 0 0 0 0 0 0 0 0 0 0
2 2 2 2 1 1 1 1 0 0 0 1 1 0 0 0 0 0 0 0 0 0 0 0 0 0 0 0 0 0 0 0 0 0 0 0 0 0 0 0 0 0 0
2 2 2 2 2 1 1 0 0 0 0 0 1 0 0 0 0 0 0 0 0 0 0 0 0 0 0 0 0 0 0 0 0 0 0 0 0 0 0 0 0 0 0
1 1 2 2 2 1 1 0 0 0 0 0 0 0 0 0 0 0 0 0 0 0 0 0 0 0 0 0 0 0 0 0 0 0 0 0 0 0 0 0 0 0 0
1 1 1 2 1 1 0 0 0 0 0 0 0 0 0 0 0 0 0 0 0 0 0 0 0 0 0 0 0 0 0 0 0 0 0 0 0 0 0 0 0 0 0
1 1 1 1 1 1 0 0 0 0 0 0 0 0 0 0 0 0 0 0 0 0 0 0 0 0 0 0 0 0 0 0 0 0 0 0 0 0 0 0 0 0 0
Wind_Speed
3 3 5 7 10 11 11 11 12 12 12 12 12 13 13 13 13 13 13 14 14 14 14 14 15 15 15 15 15 16 16 16 16 15 14 14 14 15 15 14 12 9 15
5 4 6 9 11 11 11 11 11 12 12 12 12 12 13 13 13 13 13 13 14 14 14 14 14 14 14 15 15 15 15 15 15 14 13 11 12 14 14 13 13 9 14
6 4 6 10 11 12 12 12 12 12 12 11 11 12 12 12 12 13 12 13 13 13 14 14 14 14 14 14 14 14 15 15 14 13 11 7 8 13 14 13 13 14 14
6 5 5 10 11 12 12 12 12 12 12 11 11 11 12 12 12 12 12 12 13 13 13 13 13 13 13 13 13 13 14 14 13 12 7 6 6 11 13 13 13 14 14
5 4 6 10 11 12 12 12 12 12 11 11 11 11 12 12 12 12 12 12 12 12 12 12 13 12 12 12 13 13 13 13 13 10 6 6 5 11 12 13 13 13 13
6 4 6 11 11 12 12 12 12 11 11 11 10 11 12 12 12 12 12 12 12 12 12 12 12 12 12 12 13 13 13 13 10 6 6 5 5 10 12 12 12 12 13
6 4 5 10 11 11 12 11 11 11 11 10 10 11 11 12 12 12 12 11 12 12 11 11 11 12 12 12 12 13 13 12 8 6 5 5 6 11 12 12 12 12 12
6 5 5 9 10 10 10 11 11 11 10 10 10 11 11 11 11 11 11 11 12 11 11 11 11 11 11 11 12 12 12 10 8 6 5 4 8 11 12 11 11 12 12
6 5 4 4 6 8 9 10 10 10 10 10 10 10 10 10 10 10 10 11 11 11 11 11 11 11 11 11 12 12 12 11 6 4 5 4 8 10 11 11 11 11 11
5 5 4 4 4 4 5 8 9 9 9 9 9 9 9 9 9 9 9 10 10 10 10 11 11 11 11 11 12 12 11 9 5 5 3 4 9 10 11 10 10 10 11
4 4 4 4 4 4 4 6 7 8 8 8 7 9 7 4 4 5 7 9 9 9 9 10 10 10 10 10 11 11 9 4 4 3 2 6 9 10 10 10 10 10 10
4 3 3 4 4 3 3 4 3 4 4 4 4 4 3 3 3 4 7 8 9 9 9 9 10 9 7 4 6 8 4 4 4 3 3 7 8 9 9 9 9 9 9
5 4 3 3 3 3 3 3 2 2 2 3 4 4 3 3 3 3 2 4 4 6 4 5 5 4 4 3 3 3 4 4 3 2 3 6 7 8 8 8 8 8 8
5 4 3 3 4 4 3 3 3 2 2 2 3 4 3 2 3 2 2 2 2 2 3 3 2 3 4 4 4 4 4 3 2 2 3 6 6 7 7 7 7 7 7
4 4 4 4 4 4 4 3 3 3 2 2 3 3 3 3 2 2 2 2 2 2 2 2 3 3 3 4 4 4 4 4 3 3 2 5 5 5 6 5 6 6 6
5 4 4 4 4 5 4 3 3 3 3 3 3 3 3 3 2 2 2 2 2 2 2 2 3 3 2 3 4 3 3 3 3 3 3 4 6 6 6 6 5 5 6
5 5 5 5 5 5 5 4 3 3 3 3 2 3 3 3 3 2 2 2 1 2 2 2 3 3 3 3 4 3 3 3 3 3 3 3 3 6 7 6 5 5 5
4 5 5 5 5 5 4 4 3 3 4 3 2 2 3 4 3 3 2 2 2 2 2 2 3 3 3 3 2 2 2 2 3 3 3 3 3 3 5 6 5 4 4
5 6 5 5 5 4 5 4 4 4 4 3 2 3 3 3 4 3 2 2 2 2 2 2 3 2 3 2 2 2 2 2 2 3 3 3 3 3 3 5 6 6 5
5 5 6 5 5 4 4 4 3 4 3 3 2 3 3 3 3 3 3 3 3 3 3 3 3 3 2 2 2 3 2 2 2 3 3 2 3 3 3 3 3 4 7
5 5 6 5 4 4 3 3 3 2 2 2 2 3 3 3 3 3 3 3 3 3 3 3 3 3 3 2 2 2 2 2 3 2 2 2 3 3 3 3 2 2 3
6 5 5 5 5 4 3 2 2 3 2 2 2 3 3 3 2 3 3 2 2 3 3 3 3 2 2 2 2 2 1 2 2 2 2 2 3 2 3 3 2 2 2
6 6 5 5 5 4 4 3 3 3 3 2 2 2 2 3 3 3 3 3 2 2 2 2 3 3 1 1 2 2 2 1 2 2 2 1 2 2 2 2 3 2 2
5 5 4 5 4 4 4 5 5 4 3 2 2 2 2 3 3 2 2 2 2 2 2 2 2 2 2 1 1 2 1 1 1 2 2 2 2 2 2 2 2 2 2
4 4 4 4 4 4 4 5 5 3 2 2 2 3 2 2 2 2 2 2 2 2 2 2 2 2 1 1 0 0 1 1 0 1 2 3 3 2 2 2 2 2 2
3 4 4 4 3 4 4 4 4 4 4 4 3 2 2 1 1 1 1 1 1 1 1 1 1 2 1 1 1 0 0 0 0 0 1 2 3 3 3 2 2 2 1
Wind_Direction
180 189 154 135 127 118 111 106 102 99 94 90 88 87 87 87 86 84 83 81 79 76 75 74 74 73 73 73 71 70 69 69 67 65 63 65 68 71 70 68 66 65 72
162 171 149 136 128 121 115 108 103 100 95 92 91 90 89 89 87 85 83 81 80 78 78 76 75 74 73 73 72 71 70 68 65 61 55 57 63 70 71 69 67 70 74
140 146 143 130 126 122 119 112 106 101 97 94 92 91 90 89 87 87 85 82 80 79 79 78 76 74 72 72 71 71 70 67 64 57 49 48 62 70 72 71 69 71 73
133 132 134 126 124 123 119 114 110 104 100 96 93 93 93 92 89 87 85 83 81 80 79 78 77 74 72 71 72 72 71 66 61 54 46 41 54 70 72 72 71 70 71
122 122 132 125 123 122 119 115 111 107 102 98 96 95 94 94 91 89 86 84 83 82 80 79 77 74 70 69 71 73 69 64 60 52 45 41 47 69 71 72 72 72 72
119 115 129 123 120 120 119 116 112 108 105 102 99 96 95 94 92 89 85 83 84 83 82 80 77 73 69 69 71 71 67 63 57 51 46 41 48 71 73 73 74 75 73
116 112 124 122 119 118 117 116 113 110 107 105 102 98 96 94 93 90 85 83 84 84 83 81 77 74 71 71 71 69 66 61 60 54 46 42 55 72 74 73 75 75 73
112 106 111 116 115 115 116 114 112 110 108 104 102 100 97 94 91 90 88 86 83 83 83 81 77 76 74 72 69 67 64 64 66 60 48 48 63 70 73 71 73 76 74
102 98 92 100 109 111 110 112 114 112 109 103 99 97 95 92 90 89 88 87 84 82 81 79 77 75 73 72 68 65 62 60 58 56 55 50 65 70 72 71 72 75 75
98 95 97 91 88 94 104 108 108 106 104 99 94 90 87 85 87 85 82 83 82 80 79 78 76 74 71 68 65 63 61 59 53 49 43 54 65 71 71 71 71 73 75
100 92 98 100 92 92 97 103 100 101 96 92 87 86 81 73 73 78 79 80 78 75 75 75 74 72 69 64 63 60 57 52 51 47 47 60 68 72 72 71 71 72 72
136 118 101 102 106 100 101 93 86 89 89 84 81 81 77 70 68 74 76 77 74 70 68 67 68 68 63 61 57 55 55 48 50 43 54 63 71 74 74 72 73 73 73
149 132 119 116 113 107 101 100 87 84 84 84 84 80 79 74 68 62 66 63 60 62 57 57 59 57 59 61 60 57 55 50 43 36 45 59 68 74 74 74 74 74 75
141 141 132 127 120 111 108 103 100 93 84 85 85 87 90 87 78 72 68 66 58 53 60 55 62 60 63 64 67 63 54 51 40 31 40 52 61 69 72 75 77 76 76
148 146 144 134 129 123 112 111 105 101 93 89 81 83 95 100 96 86 77 68 60 56 66 69 66 67 66 66 66 63 56 48 44 34 25 42 51 59 69 75 80 80 77
162 158 147 139 133 125 122 116 111 106 102 89 77 70 86 96 99 100 87 70 59 55 63 77 77 73 69 74 67 59 56 52 49 41 29 27 37 47 57 67 71 73 77
165 153 148 143 131 130 126 118 111 108 100 91 81 71 74 81 90 95 94 77 58 61 70 77 71 74 71 64 58 51 53 50 51 44 39 30 23 32 39 56 64 59 65
153 149 146 141 131 130 123 118 114 109 100 90 85 77 71 73 79 91 89 74 52 66 71 85 78 79 67 62 53 41 38 43 50 50 47 35 26 18 20 34 42 47 50
156 149 143 131 131 130 123 118 110 103 97 91 85 79 70 70 72 80 86 74 72 72 63 74 71 82 81 62 56 49 36 37 40 52 48 38 31 24 15 21 22 25 24
149 147 145 135 130 127 117 108 101 92 88 88 83 78 77 69 71 75 75 68 78 80 66 68 79 67 79 75 66 46 32 32 43 50 42 34 25 22 18 16 12 10 12
142 147 149 141 137 132 134 137 134 134 117 97 91 82 79 72 72 79 80 74 74 79 79 85 88 76 51 52 66 36 15 26 42 37 30 36 18 8 17 16 13 14 359
155 156 152 149 147 148 149 138 135 126 111 104 92 84 77 75 75 82 85 86 79 83 79 79 84 85 56 34 84 94 27 356 360 6 9 20 14 7 12 8 6 10 358
163 167 163 158 153 148 133 119 111 92 80 76 75 81 70 78 71 73 83 90 85 94 100 90 87 93 108 17 42 104 128 211 304 319 330 345 356 357 352 356 360 354 351
174 165 155 156 151 148 144 144 143 143 140 153 142 116 88 81 77 69 79 91 94 91 102 107 82 84 113 104 10 28 74 157 168 296 306 318 322 326 327 338 334 335 329
161 156 154 150 151 151 152 150 152 138 125 113 115 112 101 84 78 73 77 81 90 85 98 102 82 83 100 129 120 22 41 24 84 182 277 305 317 303 309 301 295 311 307
144 146 146 145 150 153 151 151 155 148 138 131 136 143 137 106 84 66 72 77 86 94 110 116 112 106 108 119 95 84 139 172 245 242 262 297 299 296 304 289 278 285 292